TimeCST,TemperatureF,Dew PointF,Humidity,Sea Level PressureIn,VisibilityMPH,Wind Direction,Wind SpeedMPH,Gust SpeedMPH,PrecipitationIn,Events,Conditions,WindDirDegrees,DateUTC
12:15 AM,14.2,8.6,78,30.29,10.0,NNW,3.5,-,N/A,,Clear,330,2013-03-02 06:15:00
12:35 AM,14.0,8.6,79,30.29,10.0,Calm,Calm,-,N/A,,Clear,0,2013-03-02 06:35:00
12:55 AM,12.7,8.2,82,30.29,10.0,Calm,Calm,-,N/A,,Clear,0,2013-03-02 06:55:00
1:15 AM,10.9,7.2,85,30.29,10.0,NW,5.8,-,N/A,,Clear,310,2013-03-02 07:15:00
1:35 AM,9.1,5.9,87,30.29,10.0,WNW,5.8,-,N/A,,Clear,300,2013-03-02 07:35:00
1:55 AM,9.0,5.9,87,30.29,10.0,NW,4.6,-,N/A,,Clear,310,2013-03-02 07:55:00
2:15 AM,7.9,5.0,88,30.28,10.0,NW,3.5,-,N/A,,Clear,320,2013-03-02 08:15:00
2:35 AM,7.7,5.0,89,30.28,7.0,NNW,3.5,-,N/A,,Clear,330,2013-03-02 08:35:00
2:55 AM,7.7,5.0,89,30.28,7.0,NW,3.5,-,N/A,,Clear,320,2013-03-02 08:55:00
3:15 AM,7.7,4.6,87,30.27,7.0,NNW,4.6,-,N/A,,Clear,330,2013-03-02 09:15:00
3:55 AM,7.7,4.5,87,30.27,7.0,NW,4.6,-,N/A,,Clear,320,2013-03-02 09:55:00
4:15 AM,7.7,4.5,87,30.27,7.0,NW,4.6,-,N/A,,Clear,320,2013-03-02 10:15:00
4:35 AM,7.7,4.5,87,30.28,10.0,NW,4.6,-,N/A,,Clear,320,2013-03-02 10:35:00
4:55 AM,5.2,1.6,85,30.28,7.0,NW,4.6,-,N/A,,Clear,320,2013-03-02 10:55:00
5:15 AM,5.0,1.4,85,30.28,7.0,NW,3.5,-,N/A,,Clear,320,2013-03-02 11:15:00
5:35 AM,5.0,1.4,85,30.28,7.0,NW,3.5,-,N/A,,Clear,320,2013-03-02 11:35:00
5:55 AM,5.0,1.4,85,30.29,7.0,NNW,3.5,-,N/A,,Clear,330,2013-03-02 11:55:00
6:15 AM,4.1,0.3,84,30.29,10.0,NNW,3.5,-,N/A,,Clear,330,2013-03-02 12:15:00
6:35 AM,3.2,-0.8,84,30.30,10.0,NW,3.5,-,N/A,,Clear,320,2013-03-02 12:35:00
6:55 AM,3.7,-0.0,84,30.29,7.0,NNW,4.6,-,N/A,,Clear,330,2013-03-02 12:55:00
7:15 AM,3.0,-1.1,83,30.29,7.0,NW,3.5,-,N/A,,Clear,320,2013-03-02 13:15:00
7:35 AM,5.0,1.0,84,30.29,7.0,Calm,Calm,-,N/A,,Clear,0,2013-03-02 13:35:00
7:55 AM,5.0,1.0,84,30.29,7.0,NW,3.5,-,N/A,,Clear,320,2013-03-02 13:55:00
8:15 AM,7.0,2.8,83,30.30,5.0,NW,4.6,-,N/A,Snow,Light Snow,310,2013-03-02 14:15:00
8:35 AM,7.7,3.6,83,30.31,7.0,NW,4.6,-,N/A,,Clear,310,2013-03-02 14:35:00
8:55 AM,7.7,3.7,84,30.31,10.0,NW,5.8,-,N/A,,Clear,310,2013-03-02 14:55:00
9:15 AM,9.5,5.4,83,30.31,10.0,NW,5.8,-,N/A,,Clear,320,2013-03-02 15:15:00
9:35 AM,12.6,8.2,83,30.31,10.0,NW,6.9,-,N/A,,Clear,320,2013-03-02 15:35:00
9:55 AM,12.7,7.7,80,30.31,10.0,NNW,5.8,-,N/A,,Clear,330,2013-03-02 15:55:00
10:15 AM,14.7,7.7,74,30.31,10.0,NNW,5.8,-,N/A,,Clear,330,2013-03-02 16:15:00
10:35 AM,15.3,6.4,68,30.31,10.0,NW,4.6,-,N/A,,Clear,320,2013-03-02 16:35:00
10:55 AM,17.6,8.1,66,30.31,10.0,NNW,4.6,-,N/A,,Clear,330,2013-03-02 16:55:00
11:15 AM,17.6,7.5,65,30.30,10.0,NW,3.5,-,N/A,,Clear,320,2013-03-02 17:15:00
11:35 AM,18.0,7.3,63,30.30,10.0,NNW,3.5,-,N/A,,Clear,330,2013-03-02 17:35:00
11:55 AM,19.2,8.6,63,30.29,10.0,WNW,4.6,-,N/A,,Clear,300,2013-03-02 17:55:00
12:15 PM,20.3,9.0,62,30.28,10.0,NNW,3.5,-,N/A,,Clear,340,2013-03-02 18:15:00
12:35 PM,20.3,8.6,61,30.27,10.0,Calm,Calm,-,N/A,,Clear,0,2013-03-02 18:35:00
12:55 PM,22.5,9.3,57,30.27,10.0,NW,6.9,-,N/A,,Clear,310,2013-03-02 18:55:00
1:15 PM,22.3,10.0,59,30.26,10.0,WNW,8.1,-,N/A,,Clear,300,2013-03-02 19:15:00
1:35 PM,22.3,10.4,60,30.26,10.0,WNW,9.2,-,N/A,,Clear,290,2013-03-02 19:35:00
1:55 PM,22.6,11.1,61,30.26,10.0,WNW,8.1,-,N/A,,Clear,290,2013-03-02 19:55:00
2:15 PM,22.6,10.8,60,30.25,10.0,WNW,6.9,-,N/A,,Clear,290,2013-03-02 20:15:00
2:35 PM,22.6,11.3,62,30.25,10.0,WNW,9.2,-,N/A,,Clear,300,2013-03-02 20:35:00
2:55 PM,22.8,11.7,62,30.24,10.0,West,8.1,-,N/A,,Clear,280,2013-03-02 20:55:00
3:15 PM,22.6,11.3,62,30.24,10.0,WNW,9.2,-,N/A,,Clear,300,2013-03-02 21:15:00
3:35 PM,22.6,11.3,62,30.24,10.0,WNW,9.2,-,N/A,,Clear,290,2013-03-02 21:35:00
3:55 PM,22.6,11.3,62,30.24,10.0,WNW,10.4,-,N/A,,Clear,290,2013-03-02 21:55:00
4:15 PM,22.6,12.0,64,30.25,10.0,WNW,9.2,-,N/A,,Clear,290,2013-03-02 22:15:00
4:35 PM,22.1,12.2,66,30.24,10.0,WNW,10.4,-,N/A,,Clear,290,2013-03-02 22:35:00
4:55 PM,20.8,11.7,68,30.24,10.0,WNW,8.1,-,N/A,,Clear,300,2013-03-02 22:55:00
5:35 PM,19.0,11.1,71,30.24,10.0,WNW,5.8,-,N/A,,Clear,290,2013-03-02 23:35:00
5:55 PM,18.1,10.9,73,30.24,10.0,West,3.5,-,N/A,,Clear,260,2013-03-02 23:55:00
6:15 PM,17.6,11.3,76,30.23,10.0,SW,3.5,-,N/A,,Clear,220,2013-03-03 00:15:00
6:35 PM,17.6,11.8,78,30.23,10.0,Calm,Calm,-,N/A,,Clear,0,2013-03-03 00:35:00
6:55 PM,17.6,11.5,77,30.23,10.0,Calm,Calm,-,N/A,,Clear,0,2013-03-03 00:55:00
7:15 PM,15.3,10.0,80,30.23,10.0,West,3.5,-,N/A,,Clear,280,2013-03-03 01:15:00
7:35 PM,14.5,9.9,82,30.23,10.0,Calm,Calm,-,N/A,,Clear,0,2013-03-03 01:35:00
7:55 PM,12.7,9.1,86,30.22,10.0,Calm,Calm,-,N/A,,Clear,0,2013-03-03 01:55:00
8:15 PM,12.7,9.0,85,30.23,10.0,Calm,Calm,-,N/A,,Clear,0,2013-03-03 02:15:00
8:35 PM,12.6,9.0,85,30.23,10.0,Calm,Calm,-,N/A,,Clear,0,2013-03-03 02:35:00
8:55 PM,10.2,6.8,86,30.22,10.0,Calm,Calm,-,N/A,,Clear,0,2013-03-03 02:55:00
9:15 PM,10.2,7.3,88,30.23,10.0,Calm,Calm,-,N/A,,Clear,0,2013-03-03 03:15:00
9:35 PM,8.8,6.3,89,30.23,7.0,Calm,Calm,-,N/A,,Clear,0,2013-03-03 03:35:00
9:55 PM,7.7,4.6,87,30.22,7.0,Calm,Calm,-,N/A,,Clear,0,2013-03-03 03:55:00
10:15 PM,7.7,4.1,85,30.22,10.0,Calm,Calm,-,N/A,,Clear,0,2013-03-03 04:15:00
10:35 PM,7.3,3.7,85,30.22,10.0,Calm,Calm,-,N/A,,Clear,0,2013-03-03 04:35:00
10:55 PM,6.8,3.4,86,30.21,10.0,Calm,Calm,-,N/A,,Clear,0,2013-03-03 04:55:00
11:15 PM,5.0,1.4,85,30.21,7.0,Calm,Calm,-,N/A,,Clear,0,2013-03-03 05:15:00
11:35 PM,5.0,1.8,86,30.20,5.0,Calm,Calm,-,N/A,,Clear,0,2013-03-03 05:35:00
11:55 PM,5.4,2.1,86,30.19,5.0,Calm,Calm,-,N/A,,Clear,0,2013-03-03 05:55:00